Wausau, WI

10:11 PM CST on February 23, 2017 (GMT -0600)
Wausau Downtown

Weather History for KAUW - June, 2013

Change the Weather History Date:

Thursday, June 13, 2013

  Actual Average Record
Temperature  
Mean Temperature 68 °F 64 °F  
Max Temperature 77 °F 75 °F 94 °F (1956)
Min Temperature 58 °F 53 °F 38 °F (1969)
Degree Days  
Heating Degree Days 0 3  
Month to date heating degree days 77 55  
Since 1 June heating degree days 77 55  
Since 1 July heating degree days 8243 8215  
Cooling Degree Days 3 2  
Month to date cooling degree days 11 21  
Year to date cooling degree days 48 40  
Since 1 June cooling degree days 11 21  
Growing Degree Days 16 (Base 50)    
Moisture  
Dew Point 53 °F    
Average Humidity 69    
Maximum Humidity 97    
Minimum Humidity 41    
Precipitation  
Precipitation 0.00 in 0.15 in 4.96 in (1930)
Month to date precipitation 2.71 1.92  
Year to date precipitation 17.18 11.83  
Snow  
Snow 0.00 in 0.00 in 0.00 in (2010)
Month to date snowfall 0.0 0.0  
Since 1 June snowfall 0.0  
Since 1 July snowfall 78.8 59.6  
Snow Depth 0.00 in    
Sea Level Pressure  
Sea Level Pressure 30.00 in    
Wind  
Wind Speed 7 mph (North)    
Max Wind Speed 16 mph    
Max Gust Speed 21 mph    
Visibility 10 miles    
Events      
T = Trace of Precipitation, MM = Missing Value Source: NWS Daily Summary

Daily Weather History Graph

Daily Weather History Graph

Search for Another Location

Airport or City:

Trip Planner

Search our weather history database for the weather conditions in past years. The results will help you decide how hot, cold, wet, or windy it might be!

Date:

Astronomy

Jun. 13, 2013 Rise Set
Actual Time 5:11 AM CDT 8:46 PM CDT
Civil Twilight 4:34 AM CDT 9:23 PM CDT
Nautical Twilight 3:45 AM CDT 10:12 PM CDT
Astronomical Twilight 2:40 AM CDT 11:17 PM CDT
Moon 9:58 AM CDT (6/13) 11:40 PM CDT (6/13)
Length of Visible Light 16h 48m
Length of Day
15h 34m
Waxing Crescent, 22% of the Moon is Illuminated
Jun 13
Waxing Crescent
Jun 16
First Quarter
Jun 23
Full
Jun 29
Last Quarter
Jul 8
New

Hourly Weather History & Observations

Time (CDT) Temp. Dew Point Humidity Pressure Visibility Wind Dir Wind Speed Gust Speed Precip Events Conditions
12:54 AM 61.0 °F 59.0 °F 93% 29.84 in 9.0 mi Calm Calm - N/A   Mostly Cloudy
1:54 AM 61.0 °F 59.0 °F 93% 29.86 in 10.0 mi NNW 4.6 mph - N/A   Partly Cloudy
2:54 AM 61.0 °F 59.0 °F 93% 29.87 in 10.0 mi NW 5.8 mph - N/A   Scattered Clouds
3:54 AM 60.1 °F 57.9 °F 93% 29.88 in 10.0 mi NNW 5.8 mph - N/A   Partly Cloudy
4:54 AM 59.0 °F 54.0 °F 83% 29.91 in 10.0 mi NNW 5.8 mph - N/A   Clear
5:54 AM 57.9 °F 52.0 °F 81% 29.94 in 10.0 mi NW 5.8 mph - N/A   Clear
6:54 AM 59.0 °F 52.0 °F 78% 29.96 in 10.0 mi North 5.8 mph - N/A   Clear
7:54 AM 61.0 °F 53.1 °F 75% 29.98 in 10.0 mi NNW 6.9 mph - 0.01 in   Clear
8:54 AM 64.0 °F 53.1 °F 67% 29.99 in 10.0 mi North 12.7 mph - N/A   Clear
9:54 AM 66.0 °F 53.1 °F 63% 29.99 in 10.0 mi North 12.7 mph 19.6 mph N/A   Clear
10:54 AM 68.0 °F 53.1 °F 59% 30.01 in 10.0 mi North 13.8 mph 18.4 mph N/A   Partly Cloudy
11:54 AM 70.0 °F 51.1 °F 51% 30.02 in 10.0 mi North 13.8 mph 20.7 mph N/A   Clear
12:54 PM 71.1 °F 50.0 °F 47% 30.03 in 10.0 mi North 8.1 mph 17.3 mph N/A   Partly Cloudy
1:54 PM 73.9 °F 52.0 °F 46% 30.04 in 10.0 mi NNW 9.2 mph - N/A   Mostly Cloudy
2:54 PM 75.0 °F 50.0 °F 41% 30.04 in 10.0 mi North 11.5 mph - N/A   Scattered Clouds
3:54 PM 75.0 °F 50.0 °F 41% 30.04 in 10.0 mi North 8.1 mph 17.3 mph N/A   Scattered Clouds
4:54 PM 75.0 °F 50.0 °F 41% 30.04 in 10.0 mi North 5.8 mph 18.4 mph N/A   Partly Cloudy
5:54 PM 75.9 °F 50.0 °F 40% 30.04 in 10.0 mi Variable 5.8 mph - N/A   Clear
6:54 PM 73.9 °F 48.9 °F 41% 30.04 in 10.0 mi North 9.2 mph - N/A   Clear
7:54 PM 71.1 °F 50.0 °F 47% 30.06 in 10.0 mi NNE 6.9 mph 17.3 mph N/A   Clear
8:54 PM 66.0 °F 51.1 °F 59% 30.07 in 10.0 mi NE 3.5 mph - N/A   Clear
9:54 PM 64.0 °F 51.1 °F 63% 30.10 in 10.0 mi NE 4.6 mph - N/A   Clear
10:54 PM 60.1 °F 51.1 °F 72% 30.11 in 10.0 mi Calm Calm - N/A   Clear
11:54 PM 59.0 °F 51.1 °F 75% 30.12 in 10.0 mi Calm Calm - N/A   Clear